QPF
0.01 0.01 0.02 0.02 0.03 0.03 0.03 0.02 0.01 0.02 0.03 0.02 0.02 0.00 0.00 0.00 0.00 0.00 0.00 0.00 0.00 0.00 0.00 0.00 0.00 0.00 0.00 0.00 0.00 0.00 0.00 0.00 0.00 0.00 0.00 0.00 0.00 0.00 0.00 0.00 0.00 0.00 0.00 0.00
0.01 0.01 0.02 0.02 0.03 0.02 0.01 0.01 0.01 0.07 0.03 0.00 0.01 0.00 0.00 0.00 0.00 0.00 0.00 0.00 0.00 0.00 0.00 0.00 0.00 0.00 0.00 0.00 0.00 0.00 0.00 0.00 0.00 0.00 0.00 0.00 0.00 0.00 0.00 0.00 0.00 0.00 0.02 0.00
0.01 0.01 0.02 0.02 0.02 0.02 0.01 0.00 0.01 0.04 0.04 0.00 0.00 0.00 0.00 0.00 0.00 0.00 0.00 0.00 0.00 0.00 0.00 0.00 0.00 0.00 0.00 0.00 0.00 0.00 0.00 0.00 0.00 0.00 0.00 0.00 0.00 0.00 0.00 0.00 0.00 0.00 0.00 0.00
0.02 0.01 0.02 0.03 0.02 0.01 0.00 0.00 0.01 0.00 0.01 0.01 0.00 0.00 0.00 0.00 0.00 0.00 0.00 0.00 0.00 0.00 0.00 0.00 0.00 0.00 0.00 0.00 0.00 0.00 0.00 0.00 0.00 0.00 0.00 0.00 0.00 0.00 0.00 0.00 0.00 0.00 0.00 0.00
0.02 0.02 0.01 0.01 0.04 0.01 0.00 0.00 0.00 0.00 0.00 0.00 0.00 0.00 0.00 0.00 0.00 0.00 0.00 0.00 0.00 0.00 0.00 0.00 0.00 0.00 0.00 0.00 0.00 0.00 0.00 0.00 0.00 0.00 0.00 0.00 0.00 0.00 0.00 0.00 0.00 0.00 0.00 0.00
0.01 0.01 0.01 0.01 0.02 0.02 0.00 0.00 0.00 0.01 0.01 0.01 0.01 0.00 0.00 0.00 0.00 0.00 0.00 0.00 0.00 0.00 0.00 0.00 0.00 0.00 0.00 0.00 0.00 0.00 0.00 0.00 0.00 0.00 0.00 0.00 0.00 0.00 0.00 0.00 0.00 0.00 0.00 0.00
0.01 0.01 0.00 0.01 0.02 0.02 0.00 0.00 0.00 0.02 0.02 0.02 0.00 0.00 0.00 0.00 0.00 0.00 0.00 0.00 0.00 0.00 0.00 0.02 0.01 0.00 0.00 0.00 0.00 0.00 0.00 0.00 0.00 0.00 0.00 0.00 0.00 0.00 0.00 0.00 0.00 0.00 0.00 0.00
0.01 0.01 0.01 0.00 0.01 0.02 0.01 0.00 0.00 0.01 0.02 0.01 0.00 0.00 0.00 0.00 0.00 0.00 0.00 0.00 0.00 0.00 0.00 0.01 0.01 0.01 0.01 0.00 0.00 0.00 0.00 0.01 0.02 0.00 0.00 0.00 0.00 0.00 0.00 0.00 0.00 0.00 0.00 0.00
0.02 0.02 0.01 0.01 0.01 0.02 0.02 0.01 0.00 0.01 0.03 0.02 0.00 0.00 0.00 0.00 0.00 0.00 0.00 0.00 0.00 0.00 0.01 0.01 0.01 0.00 0.00 0.00 0.00 0.00 0.00 0.00 0.04 0.01 0.00 0.00 0.00 0.00 0.00 0.00 0.00 0.00 0.00 0.00
0.01 0.02 0.02 0.01 0.01 0.02 0.02 0.01 0.01 0.02 0.02 0.00 0.00 0.01 0.01 0.00 0.00 0.00 0.00 0.00 0.00 0.01 0.03 0.01 0.00 0.00 0.00 0.00 0.00 0.00 0.00 0.01 0.02 0.03 0.01 0.00 0.00 0.00 0.00 0.00 0.00 0.00 0.00 0.00
0.02 0.01 0.02 0.02 0.02 0.03 0.01 0.01 0.02 0.02 0.02 0.02 0.01 0.00 0.00 0.00 0.00 0.01 0.00 0.03 0.02 0.03 0.05 0.02 0.00 0.00 0.00 0.00 0.00 0.00 0.00 0.00 0.01 0.02 0.03 0.00 0.00 0.00 0.00 0.00 0.00 0.00 0.00 0.00
0.02 0.02 0.01 0.02 0.03 0.02 0.01 0.01 0.02 0.04 0.03 0.02 0.01 0.03 0.02 0.01 0.00 0.00 0.00 0.01 0.01 0.01 0.02 0.01 0.00 0.00 0.00 0.00 0.00 0.00 0.00 0.00 0.02 0.01 0.00 0.00 0.00 0.00 0.00 0.00 0.00 0.00 0.00 0.00
0.02 0.01 0.02 0.03 0.03 0.01 0.01 0.01 0.01 0.02 0.01 0.01 0.00 0.01 0.01 0.00 0.00 0.00 0.04 0.02 0.00 0.00 0.00 0.00 0.01 0.00 0.00 0.00 0.00 0.00 0.00 0.00 0.00 0.00 0.00 0.00 0.00 0.00 0.00 0.00 0.00 0.00 0.00 0.00
0.02 0.02 0.02 0.03 0.02 0.01 0.03 0.03 0.02 0.01 0.01 0.01 0.01 0.00 0.00 0.00 0.00 0.00 0.02 0.02 0.02 0.01 0.00 0.02 0.05 0.01 0.00 0.00 0.00 0.00 0.00 0.00 0.00 0.00 0.00 0.00 0.01 0.00 0.00 0.00 0.00 0.00 0.00 0.00
0.02 0.02 0.02 0.02 0.01 0.02 0.03 0.03 0.02 0.01 0.00 0.01 0.01 0.01 0.00 0.00 0.00 0.00 0.00 0.01 0.06 0.07 0.04 0.03 0.01 0.00 0.00 0.00 0.00 0.00 0.00 0.00 0.00 0.00 0.00 0.00 0.00 0.00 0.00 0.00 0.00 0.00 0.00 0.00
0.01 0.01 0.01 0.01 0.01 0.02 0.01 0.00 0.00 0.00 0.00 0.01 0.02 0.00 0.00 0.00 0.00 0.00 0.00 0.01 0.04 0.05 0.03 0.03 0.01 0.00 0.00 0.00 0.00 0.00 0.00 0.00 0.00 0.00 0.00 0.00 0.00 0.00 0.00 0.00 0.00 0.00 0.00 0.00
0.01 0.01 0.01 0.01 0.01 0.00 0.00 0.00 0.00 0.00 0.00 0.00 0.00 0.01 0.02 0.00 0.01 0.00 0.00 0.02 0.03 0.04 0.06 0.03 0.02 0.00 0.00 0.00 0.00 0.00 0.00 0.00 0.00 0.00 0.00 0.00 0.00 0.00 0.00 0.00 0.00 0.00 0.00 0.00
0.00 0.00 0.00 0.00 0.00 0.01 0.01 0.00 0.00 0.00 0.00 0.00 0.00 0.02 0.08 0.04 0.03 0.02 0.02 0.05 0.08 0.05 0.04 0.03 0.03 0.01 0.04 0.02 0.00 0.00 0.00 0.00 0.00 0.00 0.00 0.00 0.00 0.00 0.00 0.00 0.00 0.00 0.00 0.00
0.00 0.00 0.00 0.00 0.00 0.01 0.01 0.00 0.00 0.02 0.02 0.02 0.00 0.01 0.05 0.04 0.04 0.05 0.08 0.09 0.09 0.04 0.04 0.03 0.03 0.04 0.04 0.02 0.00 0.00 0.00 0.00 0.00 0.00 0.00 0.00 0.00 0.00 0.00 0.00 0.00 0.00 0.00 0.00
0.00 0.00 0.00 0.01 0.02 0.01 0.00 0.00 0.01 0.02 0.01 0.03 0.02 0.02 0.02 0.00 0.00 0.02 0.05 0.05 0.05 0.03 0.02 0.04 0.04 0.04 0.01 0.00 0.00 0.00 0.00 0.00 0.00 0.00 0.00 0.00 0.00 0.00 0.00 0.00 0.00 0.00 0.00 0.00
0.01 0.01 0.02 0.01 0.00 0.00 0.01 0.00 0.00 0.00 0.01 0.01 0.01 0.04 0.01 0.01 0.00 0.00 0.01 0.02 0.01 0.02 0.03 0.05 0.04 0.03 0.00 0.00 0.00 0.00 0.00 0.00 0.00 0.00 0.00 0.00 0.00 0.00 0.00 0.00 0.00 0.00 0.00 0.00
0.00 0.01 0.01 0.01 0.02 0.03 0.01 0.01 0.00 0.01 0.03 0.05 0.02 0.03 0.01 0.01 0.00 0.00 0.00 0.02 0.01 0.02 0.02 0.04 0.01 0.00 0.00 0.00 0.00 0.00 0.00 0.00 0.00 0.00 0.00 0.00 0.00 0.00 0.00 0.00 0.00 0.00 0.00 0.00
0.03 0.04 0.02 0.03 0.01 0.01 0.00 0.01 0.01 0.01 0.01 0.01 0.01 0.02 0.01 0.01 0.00 0.00 0.00 0.00 0.01 0.01 0.01 0.00 0.00 0.00 0.00 0.00 0.00 0.00 0.00 0.00 0.00 0.00 0.00 0.00 0.00 0.00 0.00 0.00 0.00 0.00 0.00 0.00
0.02 0.01 0.00 0.01 0.00 0.01 0.00 0.00 0.00 0.00 0.00 0.00 0.00 0.00 0.00 0.00 0.00 0.00 0.00 0.00 0.00 0.00 0.01 0.00 0.01 0.01 0.01 0.00 0.00 0.00 0.00 0.00 0.00 0.00 0.00 0.00 0.00 0.00 0.00 0.00 0.00 0.00 0.00 0.00
0.00 0.00 0.00 0.00 0.00 0.00 0.00 0.00 0.00 0.00 0.00 0.00 0.00 0.00 0.00 0.00 0.00 0.00 0.00 0.00 0.00 0.00 0.01 0.00 0.01 0.01 0.00 0.00 0.00 0.00 0.00 0.00 0.00 0.00 0.00 0.00 0.00 0.00 0.00 0.00 0.00 0.00 0.00 0.00
0.00 0.00 0.00 0.00 0.00 0.00 0.00 0.00 0.00 0.00 0.00 0.00 0.00 0.00 0.00 0.00 0.00 0.00 0.00 0.00 0.00 0.01 0.01 0.01 0.00 0.00 0.00 0.00 0.00 0.00 0.00 0.00 0.00 0.00 0.00 0.00 0.00 0.00 0.00 0.00 0.00 0.00 0.00 0.00
0.00 0.01 0.00 0.00 0.00 0.00 0.00 0.00 0.00 0.00 0.00 0.00 0.00 0.00 0.00 0.00 0.00 0.00 0.00 0.00 0.00 0.00 0.00 0.00 0.00 0.00 0.00 0.00 0.00 0.00 0.00 0.00 0.00 0.00 0.00 0.00 0.00 0.00 0.00 0.00 0.00 0.00 0.00 0.00
MSLP
1007.12 1007.62 1008.34 1009.18 1010.10 1011.13 1012.36 1012.85 1012.39 1011.63 1012.89 1014.07 1012.99 1011.42 1006.49 1006.87 1005.73 1005.52 1004.24 1003.30 1002.61 1001.06 1000.35 999.76 999.73 998.83 998.49 998.57 999.06 1000.10 1000.36 1000.45 1000.28 999.74 999.69 1000.19 1000.03 1000.28 1000.83 1001.23 1002.51 1002.85 1002.72 1001.50
1005.57 1006.11 1006.79 1007.70 1008.71 1009.67 1010.80 1011.30 1011.74 1011.51 1011.53 1011.33 1010.55 1009.58 1007.78 1006.95 1006.48 1005.57 1004.13 1003.41 1002.96 1001.60 1000.74 1000.24 999.34 999.13 998.52 998.42 998.84 999.39 1000.35 1000.31 1000.48 999.89 1000.09 999.91 999.75 999.85 1000.34 1000.85 1001.55 1001.82 1002.42 1001.57
1003.81 1004.36 1005.06 1006.00 1007.06 1008.17 1009.55 1010.38 1010.51 1010.77 1010.49 1009.40 1008.78 1007.91 1005.39 1005.15 1005.90 1005.30 1004.27 1003.24 1002.58 1001.92 1001.05 1000.76 1000.00 999.31 998.65 998.91 999.32 999.87 1000.64 1000.26 1000.02 999.96 999.76 999.74 999.58 999.52 1000.13 1000.57 1001.10 1001.64 1001.02 1000.54
1002.02 1002.49 1003.49 1004.44 1005.46 1006.55 1007.95 1008.04 1007.33 1006.50 1007.04 1006.96 1006.20 1007.57 1005.50 1005.40 1005.34 1005.48 1004.82 1003.40 1002.39 1001.73 1001.94 1001.33 1001.20 1000.21 999.94 999.40 999.51 1000.17 1000.30 1000.27 1000.48 1000.40 999.86 999.37 999.29 999.15 999.42 999.45 999.68 999.83 1000.03 999.65
1000.73 1001.58 1002.19 1003.10 1004.12 1005.25 1005.87 1006.13 1005.23 1005.07 1004.78 1006.61 1006.51 1005.79 1004.90 1004.34 1003.43 1003.85 1003.33 1002.65 1001.98 1001.64 1001.53 1001.46 1001.94 1000.92 1000.81 999.87 999.83 1000.22 1000.39 1000.47 1000.90 1000.99 1000.36 999.73 999.45 999.38 998.48 998.64 998.72 998.55 998.52 998.19
999.68 1000.23 1000.84 1001.68 1002.63 1003.63 1002.64 1004.59 1004.11 1003.48 1003.83 1004.50 1005.35 1004.01 1002.56 1002.57 1003.34 1002.61 1002.49 1002.12 1001.96 1001.35 1001.23 1001.95 1003.35 1001.96 1002.17 1000.85 1000.17 1000.23 1000.79 1000.85 1001.53 1001.31 1001.08 1000.31 998.84 998.55 998.02 997.88 997.70 997.63 997.37 997.40
998.14 998.86 999.55 1000.34 1001.15 1001.62 1001.84 1003.13 1002.89 1003.00 1002.26 1003.05 1002.45 1002.71 1002.82 1002.63 1002.63 1002.37 1001.73 1001.86 1001.80 1001.05 1001.36 1003.38 1005.05 1003.34 1002.44 1002.23 1001.02 1000.56 1000.76 1001.49 1001.86 1002.13 1002.02 1000.19 998.86 998.17 997.75 997.52 997.58 997.32 996.90 996.77
996.26 997.19 998.07 998.86 999.77 1000.67 1002.00 1002.55 1001.84 1001.70 1001.70 1001.19 1002.17 1002.23 1002.06 1002.19 1002.18 1001.89 1001.44 1000.91 1000.51 1001.33 1002.58 1004.07 1006.30 1004.66 1004.01 1002.03 1001.14 1001.00 1001.61 1001.93 1002.35 1002.49 1002.01 1000.68 999.12 998.41 997.94 997.50 997.43 997.20 996.95 996.77
994.15 995.30 996.37 997.42 998.43 999.75 1001.36 1002.34 1001.81 1001.27 1001.30 1000.17 1000.52 1001.15 1001.18 1001.37 1001.38 1001.43 1000.72 1000.69 1000.71 1001.26 1001.88 1003.86 1004.50 1004.25 1002.33 1001.30 1001.08 1001.36 1002.01 1002.87 1003.47 1002.83 1001.94 1000.25 999.19 998.57 997.91 997.62 996.78 996.66 996.57 996.51
992.01 993.37 994.71 995.95 997.29 998.80 1000.40 1001.40 1002.17 1001.29 1001.28 1000.43 1000.18 1000.24 1000.66 1000.90 1001.03 1000.56 1000.40 1000.30 1000.46 1001.03 1001.56 1002.75 1003.42 1003.23 1001.29 1000.45 1000.61 1001.78 1002.63 1003.65 1003.65 1003.25 1001.96 999.79 998.25 998.07 997.99 997.34 997.35 996.55 996.41 996.23
989.99 991.62 993.14 994.67 996.33 997.93 999.57 1000.64 1001.47 1000.84 1001.06 1000.20 1000.45 1000.98 1001.47 1001.06 1000.25 999.95 999.50 1000.37 1000.67 1002.81 1002.21 1002.11 1001.94 1001.57 1001.30 1000.47 999.94 1001.22 1002.60 1003.38 1003.50 1003.00 1001.70 999.79 997.94 997.36 997.09 996.81 996.32 996.32 996.43 996.16
988.39 990.43 992.19 993.85 995.46 997.19 999.11 1000.53 1000.78 1000.74 1001.25 1001.16 1001.41 1001.26 1001.71 1001.61 1000.67 999.95 999.81 999.30 999.95 1000.73 1001.95 1001.33 1001.33 1000.61 1000.02 999.70 999.59 999.63 1001.21 1001.43 1002.45 1001.48 1000.36 999.26 997.86 997.40 996.83 996.51 996.51 996.44 996.30 996.00
987.90 989.84 991.72 993.27 995.08 996.80 998.11 999.41 1000.14 1000.45 1000.96 1001.34 1001.41 1001.09 1001.48 1001.65 1000.79 999.58 999.39 999.44 999.72 1000.56 1001.04 1001.09 1000.58 1000.06 999.86 999.20 999.22 999.10 998.83 999.54 1000.32 1000.54 1000.14 999.31 998.47 997.35 997.22 997.18 997.23 996.68 996.26 996.32
988.20 990.11 991.81 993.45 995.26 996.94 998.32 999.23 999.82 1000.45 999.83 1000.90 1001.34 1000.97 1000.70 1000.52 1000.56 1000.25 1000.39 1000.03 1000.39 1000.31 999.84 1000.45 1000.36 1000.21 999.12 999.09 998.94 998.79 998.73 998.61 998.77 998.40 998.45 998.75 998.02 998.25 998.03 997.09 996.98 996.74 996.76 996.84
989.18 990.98 992.32 994.08 995.73 997.36 998.47 999.29 1000.06 1000.42 999.95 1000.42 1000.96 1000.99 1000.06 1000.06 1000.29 1000.49 1000.84 1001.14 1001.24 1001.43 1001.05 1000.68 1000.04 1000.38 999.58 998.66 998.47 997.89 997.87 997.68 997.67 997.51 997.75 997.62 997.71 997.95 997.65 997.03 996.72 996.65 996.55 997.04
990.60 991.98 993.46 995.07 996.57 997.68 998.36 999.82 1000.29 1000.15 1000.35 1000.38 1000.82 1000.09 1000.05 1000.38 1000.49 1000.68 1000.84 1001.08 1001.61 1001.96 1001.47 1000.91 999.54 999.35 999.28 998.89 998.22 997.93 997.82 997.31 996.99 997.21 997.14 997.45 997.65 997.66 997.28 997.39 997.16 996.66 996.26 996.91
992.31 993.62 995.02 996.30 997.32 998.20 998.66 998.89 999.51 1000.29 999.87 1000.24 1000.02 999.65 999.51 999.71 1000.36 1000.83 1000.89 1000.89 1001.13 1001.56 1001.08 1000.93 999.61 999.29 999.24 999.57 999.09 998.43 997.93 997.81 997.47 997.12 997.33 997.53 997.76 998.14 998.24 998.16 997.95 997.49 997.03 996.96
994.27 995.40 996.48 997.33 997.70 997.96 998.61 999.38 999.74 1000.16 1000.63 1000.56 1000.11 999.95 999.99 999.65 1000.36 1000.73 1000.68 1000.84 1001.43 1000.70 1000.01 999.99 999.50 999.69 1000.08 1000.48 1000.19 999.61 998.88 998.26 998.12 998.64 998.55 998.56 998.74 998.82 998.87 998.99 998.87 998.62 998.57 998.35
995.78 996.59 997.31 997.92 998.92 999.73 1000.39 1000.41 1000.40 1000.62 1000.93 1000.47 1000.32 1000.35 1000.92 1001.60 1000.92 1000.69 1000.38 1000.52 1001.04 1000.73 1000.06 1000.03 999.94 1000.57 1002.45 1003.93 1003.31 1002.32 1001.43 1000.98 1000.52 1000.06 999.82 999.74 999.73 999.74 999.84 1000.25 1000.24 1000.30 1000.40 1000.44
996.52 997.24 998.36 999.53 1000.01 1000.24 1000.08 1001.20 1001.51 1001.76 1001.15 1000.62 1000.26 1000.10 1001.53 1002.08 1002.12 1001.61 1001.36 1000.81 1001.41 1000.59 1000.01 1000.41 1001.70 1002.86 1005.17 1006.15 1005.95 1005.39 1004.46 1003.29 1002.25 1001.61 1001.24 1001.17 1001.22 1001.06 1001.16 1001.61 1001.76 1001.86 1002.29 1002.98
997.90 998.11 999.23 1000.23 1000.61 1000.58 1000.86 1001.33 1001.42 1001.52 1001.16 1000.26 1000.06 1000.42 1001.48 1002.76 1002.72 1002.86 1002.27 1001.74 1001.89 1001.11 1000.32 1001.24 1002.12 1004.83 1007.31 1007.81 1007.73 1006.96 1006.22 1005.32 1004.39 1003.85 1003.33 1003.17 1002.97 1002.59 1002.60 1003.65 1004.35 1004.56 1005.03 1005.95
998.39 998.30 999.77 1000.69 1001.00 1001.16 1001.19 1001.54 1002.03 1001.89 1000.65 1000.17 1000.16 1000.59 1001.19 1002.46 1003.03 1003.42 1002.70 1002.14 1001.93 1000.64 1001.08 1002.56 1005.41 1008.42 1009.14 1009.25 1008.82 1008.56 1008.05 1007.36 1006.92 1006.52 1006.20 1006.07 1005.90 1005.97 1005.82 1006.74 1007.42 1007.79 1008.07 1008.74
998.33 998.69 999.64 1000.17 1001.04 1001.31 1001.68 1002.19 1002.11 1002.08 1002.28 1002.01 1001.18 1001.31 1001.68 1002.20 1002.88 1003.50 1002.33 1001.73 1001.99 1002.36 1003.48 1006.35 1009.21 1010.12 1010.10 1010.20 1010.17 1009.94 1009.67 1009.29 1008.85 1008.73 1008.45 1008.45 1008.58 1008.62 1008.66 1009.35 1010.12 1010.19 1010.50 1011.36
999.25 999.97 1001.26 1002.08 1002.75 1003.68 1004.17 1004.12 1003.85 1003.85 1003.42 1002.86 1002.27 1002.26 1002.46 1002.42 1002.57 1002.09 1001.88 1002.62 1002.91 1004.27 1006.29 1009.52 1011.22 1011.52 1011.54 1011.54 1011.48 1011.13 1011.11 1010.89 1010.71 1010.59 1010.51 1010.51 1010.51 1010.81 1011.21 1011.58 1011.99 1012.21 1012.71 1013.49
1001.88 1002.56 1003.95 1004.95 1005.71 1005.80 1005.59 1005.35 1004.70 1004.57 1004.24 1003.69 1002.93 1002.75 1002.82 1002.98 1003.08 1003.56 1003.69 1004.58 1006.92 1009.03 1010.95 1012.33 1013.05 1013.19 1013.02 1012.83 1012.64 1012.47 1012.39 1012.33 1012.34 1012.41 1012.41 1012.37 1012.57 1012.78 1013.15 1013.73 1014.10 1014.38 1014.73 1015.10
1004.91 1006.64 1006.98 1007.30 1006.56 1006.69 1006.47 1005.98 1005.34 1005.06 1004.72 1004.08 1003.59 1003.56 1003.83 1004.79 1005.41 1006.02 1007.46 1008.38 1010.95 1013.01 1014.01 1014.80 1014.92 1014.61 1014.37 1014.30 1014.28 1014.07 1013.91 1013.84 1013.92 1013.98 1014.03 1014.26 1014.53 1014.76 1015.24 1015.59 1015.84 1016.03 1016.36 1016.85
1007.22 1008.63 1009.28 1008.97 1008.56 1008.23 1007.70 1007.18 1006.53 1006.02 1005.43 1005.10 1005.47 1006.22 1007.18 1007.61 1008.57 1010.25 1011.65 1013.04 1014.52 1015.41 1016.06 1016.39 1016.49 1016.33 1016.25 1016.10 1015.89 1015.79 1015.62 1015.49 1015.60 1015.79 1015.88 1016.09 1016.41 1016.59 1016.73 1017.00 1017.70 1017.83 1018.15 1018.39
Thickness
5449 5449 5449 5446 5442 5435 5428 5430 5440 5456 5443 5432 5445 5473 5544 5549 5554 5557 5569 5576 5583 5606 5624 5631 5628 5640 5655 5672 5666 5644 5656 5651 5640 5659 5679 5679 5678 5671 5671 5650 5641 5649 5637 5652
5448 5448 5448 5444 5440 5434 5428 5427 5429 5439 5443 5441 5458 5490 5516 5524 5527 5533 5559 5567 5577 5598 5606 5611 5630 5635 5659 5661 5658 5649 5650 5638 5624 5643 5657 5669 5663 5672 5672 5673 5666 5648 5616 5642
5446 5446 5445 5443 5438 5432 5424 5416 5421 5429 5436 5470 5478 5495 5528 5530 5525 5526 5547 5561 5575 5584 5596 5607 5615 5625 5648 5648 5647 5639 5639 5641 5635 5624 5645 5663 5654 5664 5667 5661 5632 5633 5643 5656
5443 5444 5442 5439 5435 5429 5418 5415 5433 5458 5457 5466 5496 5485 5517 5513 5510 5513 5525 5544 5559 5575 5568 5590 5596 5619 5620 5635 5635 5637 5636 5624 5636 5645 5660 5669 5664 5663 5665 5661 5665 5649 5654 5658
5433 5432 5433 5431 5430 5425 5414 5405 5446 5464 5479 5462 5470 5486 5505 5513 5527 5517 5523 5533 5557 5569 5570 5586 5588 5605 5611 5614 5625 5624 5631 5617 5628 5621 5647 5656 5649 5655 5670 5668 5669 5671 5671 5668
5417 5418 5420 5421 5421 5417 5423 5404 5445 5457 5467 5464 5457 5484 5517 5520 5518 5520 5527 5537 5545 5555 5575 5589 5568 5591 5591 5609 5613 5614 5613 5615 5611 5602 5632 5638 5626 5650 5664 5668 5675 5674 5660 5676
5397 5397 5399 5402 5407 5412 5411 5408 5441 5431 5455 5454 5475 5492 5499 5504 5505 5509 5524 5528 5532 5562 5584 5563 5554 5575 5581 5586 5604 5611 5607 5606 5606 5587 5596 5592 5640 5664 5668 5661 5664 5672 5676 5683
5382 5381 5383 5388 5393 5399 5396 5402 5422 5430 5442 5472 5467 5477 5487 5498 5498 5502 5510 5525 5546 5560 5547 5533 5515 5536 5548 5574 5594 5599 5603 5599 5590 5584 5587 5613 5634 5650 5649 5650 5649 5670 5668 5675
5383 5381 5382 5384 5387 5389 5384 5389 5413 5429 5442 5460 5479 5477 5487 5484 5489 5496 5512 5526 5539 5542 5541 5517 5513 5524 5558 5568 5577 5595 5593 5589 5579 5586 5582 5583 5622 5648 5661 5660 5626 5670 5671 5670
5378 5376 5376 5378 5380 5378 5376 5386 5399 5420 5428 5459 5467 5472 5479 5486 5487 5496 5509 5518 5522 5529 5534 5520 5519 5523 5568 5567 5568 5562 5565 5562 5563 5575 5577 5605 5639 5651 5655 5618 5631 5665 5669 5671
5373 5372 5372 5372 5372 5372 5371 5382 5394 5414 5425 5455 5454 5459 5459 5474 5488 5493 5515 5507 5512 5495 5509 5523 5536 5538 5551 5564 5580 5559 5550 5554 5556 5569 5574 5581 5643 5645 5630 5650 5664 5665 5662 5667
5374 5369 5368 5369 5371 5370 5370 5376 5396 5413 5420 5428 5437 5450 5453 5460 5478 5493 5499 5514 5517 5517 5507 5527 5537 5542 5551 5566 5557 5584 5556 5569 5562 5584 5594 5615 5634 5635 5650 5657 5656 5657 5657 5665
5375 5370 5369 5371 5372 5371 5379 5388 5398 5407 5417 5427 5434 5445 5450 5456 5470 5490 5500 5507 5514 5511 5520 5529 5537 5535 5551 5553 5560 5576 5592 5587 5573 5574 5590 5604 5620 5632 5638 5639 5638 5651 5654 5653
5373 5371 5372 5374 5374 5373 5379 5388 5401 5408 5428 5425 5433 5440 5450 5458 5466 5477 5484 5496 5497 5512 5525 5518 5523 5528 5557 5553 5565 5565 5581 5590 5587 5593 5603 5604 5615 5613 5615 5631 5635 5639 5643 5641
5372 5372 5376 5377 5376 5378 5386 5393 5400 5410 5426 5427 5428 5437 5454 5460 5464 5471 5475 5477 5482 5489 5495 5506 5521 5526 5542 5556 5563 5569 5583 5583 5580 5584 5602 5602 5606 5607 5613 5620 5628 5633 5634 5631
5375 5377 5379 5380 5380 5383 5391 5386 5397 5410 5419 5428 5424 5447 5451 5455 5460 5464 5469 5474 5475 5482 5494 5506 5529 5538 5540 5540 5552 5573 5580 5589 5596 5590 5602 5597 5603 5606 5614 5614 5618 5626 5631 5626
5378 5378 5379 5380 5384 5390 5400 5409 5412 5413 5425 5428 5439 5448 5456 5459 5457 5456 5461 5471 5473 5480 5497 5500 5523 5532 5542 5536 5537 5568 5575 5580 5586 5590 5589 5589 5595 5591 5595 5599 5604 5611 5618 5619
5378 5378 5380 5384 5392 5401 5403 5406 5410 5413 5417 5428 5435 5442 5445 5456 5451 5452 5465 5468 5470 5481 5501 5509 5521 5529 5529 5529 5545 5560 5566 5574 5576 5566 5574 5578 5579 5582 5583 5584 5587 5590 5593 5597
5383 5385 5387 5392 5390 5391 5393 5399 5406 5411 5416 5425 5432 5434 5437 5426 5449 5458 5468 5476 5467 5485 5493 5500 5514 5518 5507 5481 5500 5524 5536 5541 5546 5555 5562 5563 5565 5569 5569 5565 5567 5568 5569 5569
5391 5392 5387 5383 5387 5390 5398 5396 5397 5398 5411 5424 5430 5443 5426 5428 5422 5444 5457 5469 5464 5483 5500 5499 5494 5498 5461 5454 5464 5481 5497 5517 5533 5539 5544 5546 5547 5553 5554 5552 5553 5555 5552 5542
5389 5394 5387 5385 5387 5393 5395 5394 5402 5406 5409 5431 5437 5435 5424 5417 5427 5431 5446 5461 5451 5478 5497 5496 5504 5468 5436 5439 5448 5466 5476 5492 5506 5516 5524 5527 5530 5537 5539 5527 5515 5511 5504 5494
5395 5400 5392 5388 5387 5391 5398 5398 5392 5398 5429 5434 5432 5433 5433 5423 5425 5421 5437 5453 5452 5488 5487 5475 5443 5421 5423 5428 5437 5443 5450 5463 5469 5474 5478 5481 5484 5483 5483 5474 5468 5466 5465 5458
5401 5404 5400 5406 5397 5404 5409 5407 5411 5412 5395 5402 5425 5430 5429 5431 5428 5420 5441 5462 5468 5451 5458 5429 5406 5406 5415 5416 5420 5424 5429 5434 5439 5442 5446 5447 5446 5446 5446 5441 5436 5436 5433 5426
5398 5397 5390 5393 5389 5380 5375 5377 5388 5387 5392 5400 5413 5422 5422 5420 5430 5438 5462 5449 5451 5461 5445 5404 5391 5394 5399 5403 5405 5411 5411 5415 5416 5418 5419 5419 5420 5418 5416 5413 5410 5408 5404 5397
5375 5379 5370 5364 5357 5360 5365 5371 5384 5386 5393 5400 5419 5420 5427 5432 5440 5436 5453 5449 5416 5402 5387 5374 5374 5378 5383 5387 5391 5394 5395 5395 5395 5395 5396 5397 5396 5394 5391 5385 5381 5378 5373 5370
5357 5340 5344 5345 5361 5359 5363 5372 5386 5394 5397 5405 5418 5428 5431 5417 5418 5416 5403 5414 5380 5362 5357 5352 5355 5362 5367 5370 5371 5373 5375 5377 5376 5375 5374 5372 5368 5366 5361 5358 5355 5353 5349 5344
5345 5334 5327 5336 5345 5352 5363 5372 5382 5388 5399 5415 5411 5408 5404 5408 5396 5378 5369 5358 5347 5341 5338 5338 5337 5341 5344 5345 5347 5349 5351 5353 5352 5350 5348 5346 5342 5339 5338 5334 5327 5324 5320 5317